Location: Unspecified
(0.0000°N, 0.0000°E)
Time: 02:42:20

Envisat - Pass Details

Date: 12 March 2018
Orbit: 764 x 766 km, 98.2° (Epoch: 23 March)

Event Time Altitude Azimuth Distance (km) Brightness Sun altitude
Rises 20:14:53 0° 179° (S) 3,231 6.3 -31.3°
Enters shadow 20:15:50 - 181° (S) 2,862 6.0 -31.5°
Exits shadow 20:24:12 30° 312° (NW) 1,343 4.5 -33.6°
Drops below altitude 10° 20:26:58 10° 331° (NNW) 2,292 5.7 -34.3°
Sets 20:29:20 0° 337° (NNW) 3,215 6.4 -34.9°
